Showing default

ICEYE-X27, 55062

Orbit data source: Space-Track

ICEYE-X27, 55062 is a payload satellite owned by ICEYE US (US) in SSO that was launched on Tue, 03 Jan 2023 UTC via an FALCON 9 launch vehicle from the Air Force Eastern Test Range (AFETR). Payload-class satellites include a variety of spacecraft equipped with specific instruments for various scientific and technological missions. These include communications satellites like Starlink; space stations such as the ISS; scientific satellites like the Hubble; Earth observation satellites from companies like Planet Labs, Umbra, and HawkEye 360; GPS; miniature CubeSats for education and research; and military/defense satellites.

Loading next visibility...
Identifier
55062, 2023-001BF
Orbit
SSO
Country
Flag of USUS
Related business
Manufacturer
ICEYE
Mission
Non-operational Commercial Radar Imaging
Bus & Motor
ICEYE, Unknown motor
Mass
90 kg wet, 89 kg dry
Launch date (UTC)
2023-01-03 (3 years ago)
Launch vehicle
FALCON 9
Launch site
Air Force Eastern Test Range (AFETR)
Object type
Payload
Rocket body
Debris
Shape & HBR
Box + 1 Pan, 1.6 m
Radar Cross Section
1.837 m², Medium (>0.1 m² and < 1m²)

Expand to show TLE details & history
Last TLE update: 10 hours ago

TLE from 10 hours ago
0 ICEYE-X27
1 55062U 23001BF  25286.94671560  .00254732  00000-0  14219-2 0  9997
2 55062  97.3503 358.9428 0003707 231.7476 128.3458 15.78689671155160
Epoch: 2025-10-13T22:43Z
TLE epoch observation values (Epoch: 2025-10-13T22:43:16.227Z)
Latitude
-0.00002°
Longitude
-4.61701°
Altitude
338.868 km
Speed
7.704 km/s
True Right ascension
23h 55m 46s
True Declination
0° 00' 00"
Sunlit
Object was in full shadow at epoch
Visualization orbit readout
Latitude
Unknown
Longitude
Unknown
Altitude
Unknown
Speed
Unknown
Apparent Right ascension
Unknown
Apparent Declination
Unknown
Sunlit
N/A
Visualization observer readout
Local Sidereal Time
02:52:11
Azimuth
Unknown
Elevation
Unknown
Doppler factor
Unknown
Orbital elements
Apogee altitude
333.525 km
Perigee altitude
328.551 km
Semi-major axis
6,709.175 km
Eccentricity
0.00037
Inclination
97.3503°
RAAN
358.9428°
Arg. of periapsis
231.7476°
True anomaly
128.37911°
Mean anomaly
128.3458°
Eccentric anomaly
128.36245°
Mean motion
3.94948 °/min
Orbital period
91.15 mins
BSTAR
0.0014219
Loading maneuver chart data...
Computing Atmospheric mass density...
Loading historical data...
Loading historical data...
Loading historical data...
Loading historical data...
Loading historical data...
Loading historical data...
Loading historical data...

Documentation

Showing up to 5 results
|